VK2HIM-1 Weather Reports


time (UTC)temp
F
wind
direction
speed
knots
gust
knots
rain 1hr
in
rain 24hr
in
rain mn
in
humidity
%
barometer
mb
20260510070347 63 194 0.0 0.0 0.00 0.00 0.00 80 1029.8
20260510063347 64 85 0.0 0.0 0.00 0.00 0.00 80 1029.3
20260510060347 65 148 0.0 0.0 0.00 0.00 0.00 78 1029.0
20260510053347 66 110 0.9 2.6 0.00 0.00 0.00 77 1028.9
20260510050349 69 103 0.9 4.3 0.00 0.00 0.00 73 1028.6
20260510043349 69 138 0.0 0.0 0.00 0.00 0.00 73 1028.5
20260510040349 72 306 0.0 0.9 0.00 0.00 0.00 73 1028.5
20260510033349 72 198 0.0 1.7 0.00 0.00 0.00 71 1028.5
20260510030349 71 197 0.9 2.6 0.00 0.00 0.00 69 1028.6
20260510023349 69 197 0.9 1.7 0.00 0.00 0.00 74 1028.9
20260510020349 68 205 0.0 0.0 0.00 0.00 0.00 72 1029.3
20260510013349 68 208 0.9 2.6 0.00 0.00 0.00 72 1029.5
20260510010349 67 206 1.7 2.6 0.00 0.00 0.00 71 1029.6
20260510003349 67 197 1.7 2.6 0.00 0.00 0.00 74 1029.5
20260510000349 66 212 1.7 2.6 0.00 0.00 0.00 75 1029.3
20260509233348 64 270 0.0 0.0 0.00 0.00 0.00 81 1029.0
20260509230348 61 248 0.0 0.0 0.00 0.00 0.00 87 1029.1
20260509223347 57 253 0.9 2.6 0.00 0.00 0.00 89 1029.2
20260509220347 53 224 0.0 0.9 0.00 0.00 0.00 91 1028.9
20260509213347 51 231 0.0 0.0 0.00 0.00 0.00 90 1028.6
20260509210347 51 218 0.0 0.0 0.00 0.00 0.00 90 1028.2
20260509203347 51 218 0.0 0.0 0.00 0.00 0.00 90 1027.7
20260509200347 51 218 0.0 0.0 0.00 0.00 0.00 90 1027.4
20260509193347 51 218 0.0 0.0 0.00 0.00 0.00 89 1027.0
20260509190347 52 218 0.0 0.0 0.00 0.00 0.00 88 1026.6
20260509183347 52 218 0.0 0.0 0.00 0.00 0.00 88 1026.3
20260509180347 52 218 0.0 0.0 0.00 0.00 0.00 89 1026.0
20260509173346 52 218 0.0 0.0 0.00 0.00 0.00 88 1025.9
20260509170345 52 218 0.0 0.0 0.00 0.00 0.00 87 1025.9
20260509163346 53 218 0.0 0.0 0.00 0.00 0.00 87 1025.9
20260509160345 53 218 0.0 0.0 0.00 0.00 0.00 87 1026.0
20260509153345 53 218 0.0 0.0 0.00 0.00 0.00 87 1026.0
20260509150345 53 218 0.0 0.0 0.00 0.00 0.00 87 1026.1
20260509143345 53 218 0.0 0.0 0.00 0.00 0.00 86 1026.2
20260509140345 53 218 0.0 0.0 0.00 0.00 0.00 86 1026.2
20260509133348 54 218 0.0 0.0 0.00 0.00 0.00 84 1026.2
20260509130348 55 218 0.0 0.0 0.00 0.00 0.00 84 1026.3
20260509123348 54 218 0.0 0.0 0.00 0.00 0.00 84 1026.4
20260509120348 54 218 0.0 0.0 0.00 0.00 0.00 85 1026.5
20260509113348 54 218 0.0 0.0 0.00 0.00 0.00 85 1026.5
20260509110348 54 218 0.0 0.0 0.00 0.00 0.00 85 1026.3
20260509103348 55 218 0.0 0.0 0.00 0.00 0.00 85 1026.2
20260509100348 55 218 0.0 0.0 0.00 0.00 0.00 85 1026.0
20260509093348 55 106 0.0 0.0 0.00 0.00 0.00 84 1025.8
20260509090346 56 106 0.0 0.0 0.00 0.00 0.00 82 1025.5
20260509083346 57 106 0.0 0.0 0.00 0.00 0.00 81 1025.3
20260509080346 58 106 0.0 0.9 0.00 0.00 0.00 78 1024.9
20260509073346 61 106 0.0 0.0 0.00 0.00 0.00 73 1024.5